DW2536 Weather Reports


time (UTC)temp
C
wind
direction
speed
KPH
gust
KPH
rain 1hr
cm
rain 24hr
cm
rain mn
cm
humidity
%
barometer
mb
20260503053525 14 68 0.0 3.2 0.00 0.36 0.28 83 1012.0
20260503052540 13 0.0 0.0 0.00 0.36 0.28 82 1012.3
20260503051519 13 0.0 0.0 0.00 0.36 0.28 83 1012.3
20260503050522 13 0.0 0.0 0.00 0.36 0.28 83 1012.3
20260503045518 13 0.0 0.0 0.00 0.36 0.28 82 1012.3
20260503044521 13 0.0 0.0 0.00 0.36 0.28 82 1012.3
20260503043541 13 0.0 0.0 0.00 0.36 0.28 82 1012.3
20260503042524 13 0.0 0.0 0.08 0.36 0.28 82 1012.2
20260503041525 13 0.0 0.0 0.08 0.36 0.28 82 1012.2
20260503040525 13 0.0 0.0 0.15 0.36 0.28 82 1012.3
20260503035522 13 66 0.0 0.0 0.15 0.36 0.28 82 1012.3
20260503034524 13 87 0.0 1.6 0.15 0.36 0.28 82 1012.5
20260503033546 13 139 0.0 0.0 0.15 0.36 0.28 81 1012.5
20260503032526 13 84 0.0 3.2 0.08 0.28 0.20 81 1013.1
20260503031546 13 177 0.0 0.0 0.08 0.28 0.20 81 1013.2
20260503030537 13 74 0.0 3.2 0.00 0.20 0.15 80 1013.3
20260503025518 13 0.0 0.0 0.00 0.20 0.15 80 1013.3
20260503024518 13 217 0.0 3.2 0.00 0.20 0.15 80 1013.2
20260503023519 13 0.0 0.0 0.00 0.20 0.15 80 1013.2
20260503022520 13 0.0 3.2 0.00 0.20 0.15 79 1013.5
20260503021521 13 0.0 0.0 0.00 0.20 0.15 79 1013.6
20260503020520 13 262 0.0 0.0 0.00 0.20 0.15 79 1013.4
20260503015522 13 79 0.0 3.2 0.00 0.20 0.15 79 1013.4
20260503014522 13 139 0.0 1.6 0.00 0.20 0.15 79 1013.2
20260503013525 13 0.0 0.0 0.00 0.20 0.15 79 1013.2
20260503012537 13 0.0 0.0 0.00 0.20 0.15 78 1013.5
20260503011538 13 0.0 0.0 0.00 0.20 0.15 78 1013.5
20260503010539 13 73 0.0 0.0 0.00 0.20 0.15 78 1013.7
20260503005520 13 83 0.0 3.2 0.00 0.20 0.15 78 1013.7
20260503004521 13 86 0.0 0.0 0.00 0.20 0.15 78 1013.7
20260503003523 13 87 0.0 1.6 0.00 0.20 0.15 78 1013.7
20260503002523 13 89 1.6 3.2 0.00 0.20 0.15 78 1013.9
20260503001524 13 121 0.0 0.0 0.00 0.20 0.15 77 1013.9
20260503000523 13 0.0 0.0 0.00 0.20 0.15 77 1014.1
20260502235522 13 0.0 1.6 0.00 0.20 0.15 77 1014.1
20260502234543 13 68 0.0 0.0 0.00 0.20 0.15 77 1014.4
20260502233524 13 225 0.0 1.6 0.00 0.20 0.15 77 1014.4
20260502232547 13 125 0.0 3.2 0.08 0.20 0.15 76 1014.5
20260502231537 13 92 0.0 1.6 0.08 0.20 0.15 76 1014.5
20260502230517 13 130 1.6 3.2 0.08 0.20 0.15 76 1014.6
20260502225520 13 180 1.6 3.2 0.15 0.20 0.15 75 1014.6
20260502224520 13 126 4.8 4.8 0.20 0.20 0.15 75 1014.9
20260502223523 13 127 3.2 9.7 0.20 0.20 0.15 74 1014.9
20260502222523 13 98 3.2 8.0 0.15 0.15 0.08 72 1014.7
20260502221521 13 140 6.4 8.0 0.15 0.15 0.08 71 1014.7
20260502220521 13 108 4.8 14.5 0.15 0.15 0.08 68 1016.2
20260502215542 14 89 3.2 3.2 0.08 0.08 0.08 67 1016.5
20260502214523 15 246 1.6 8.0 0.00 0.00 0.00 63 1015.9
20260502213523 15 208 1.6 9.7 0.00 0.00 0.00 59 1015.8
20260502212525 15 86 3.2 4.8 0.00 0.00 0.00 59 1015.6
20260502211537 15 57 3.2 4.8 0.00 0.00 0.00 58 1015.5
20260502210519 15 81 4.8 4.8 0.00 0.00 0.00 58 1015.9
20260502205600 15 62 3.2 9.7 0.00 0.00 0.00 58 1016.0
20260502204521 15 68 3.2 4.8 0.00 0.00 0.00 57 1016.1
20260502203517 15 76 3.2 9.7 0.00 0.00 0.00 57 1016.1
20260502202517 15 73 1.6 4.8 0.00 0.00 0.00 57 1016.4
20260502201520 15 68 3.2 4.8 0.00 0.00 0.00 58 1016.5
20260502200522 15 87 3.2 4.8 0.00 0.00 0.00 55 1016.5
20260502195522 15 80 3.2 6.4 0.00 0.00 0.00 54 1016.5
20260502194522 15 55 1.6 3.2 0.00 0.00 0.00 52 1016.7
20260502193525 16 76 1.6 4.8 0.00 0.00 0.00 50 1016.8
20260502192527 16 196 1.6 4.8 0.00 0.00 0.00 49 1016.7
20260502191515 16 109 1.6 3.2 0.00 0.00 0.00 47 1016.7
20260502190527 16 74 3.2 3.2 0.00 0.00 0.00 46 1016.8
20260502185516 17 73 1.6 4.8 0.00 0.00 0.00 45 1016.8
20260502184527 17 17 0.0 1.6 0.00 0.00 0.00 43 1016.8
20260502183517 17 88 0.0 3.2 0.00 0.00 0.00 42 1016.8
20260502182517 17 353 0.0 1.6 0.00 0.00 0.00 41 1016.7
20260502181518 18 98 1.6 1.6 0.00 0.00 0.00 40 1016.7
20260502180540 18 112 1.6 4.8 0.00 0.00 0.00 40 1016.9
20260502170519 18 309 3.2 3.2 0.00 0.00 0.00 37 1017.7
20260502163519 19 289 3.2 6.4 0.00 0.00 0.00 36 1018.0
20260502162520 19 315 3.2 9.7 0.00 0.00 0.00 36 1018.1
20260502161518 20 272 3.2 6.4 0.00 0.00 0.00 36 1018.2
20260502160536 20 282 4.8 8.0 0.00 0.00 0.00 36 1018.3
20260502151518 20 276 3.2 8.0 0.00 0.00 0.00 38 1018.5
20260502150519 20 309 3.2 6.4 0.00 0.00 0.00 38 1018.7
20260502130522 20 152 1.6 6.4 0.00 0.00 0.00 44 1019.9
20260502123519 20 245 3.2 8.0 0.00 0.00 0.00 49 1020.1
20260502122521 20 242 3.2 6.4 0.00 0.00 0.00 51 1020.3
20260502121541 20 271 4.8 9.7 0.00 0.00 0.00 54 1020.3
20260502120556 20 315 4.8 6.4 0.00 0.00 0.00 55 1020.3
20260502115024 20 281 3.2 6.4 0.00 0.00 0.00 58 1020.1
20260502114023 20 294 3.2 4.8 0.00 0.00 0.00 59 1020.4
20260502113025 20 256 3.2 8.0 0.00 0.00 0.00 59 1020.4
20260502112022 21 226 1.6 12.9 0.00 0.00 0.00 59 1020.6
20260502111017 20 250 3.2 4.8 0.00 0.00 0.00 60 1020.6
20260502110519 20 255 3.2 8.0 0.00 0.00 0.00 62 1020.6
20260502105524 20 266 1.6 4.8 0.00 0.00 0.00 63 1020.5
20260502104525 19 316 3.2 8.0 0.00 0.00 0.00 64 1020.6
20260502103527 19 290 3.2 8.0 0.00 0.00 0.00 65 1020.7
20260502102528 19 282 3.2 4.8 0.00 0.00 0.00 64 1020.6
20260502101531 19 233 3.2 4.8 0.00 0.00 0.00 65 1020.5
20260502100523 19 183 1.6 9.7 0.00 0.00 0.00 65 1020.5
20260502091527 19 244 1.6 4.8 0.00 0.00 0.00 69 1020.5
20260502090538 18 332 1.6 3.2 0.00 0.00 0.00 70 1020.4
20260502071023 15 188 0.0 0.0 0.00 0.00 0.00 65 1019.7
20260502070023 14 240 0.0 1.6 0.00 0.00 0.00 64 1019.8
20260502065023 15 293 0.0 3.2 0.00 0.00 0.00 62 1019.8
20260502064024 15 166 0.0 3.2 0.00 0.00 0.00 60 1020.2
20260502063024 14 0.0 3.2 0.00 0.00 0.00 59 1020.2
20260502062026 13 0.0 0.0 0.00 0.00 0.00 58 1019.3
20260502061027 13 0.0 0.0 0.00 0.00 0.00 58 1019.3
20260502060028 13 0.0 0.0 0.00 0.00 0.00 58 1019.7
20260502055055 13 0.0 0.0 0.00 0.00 0.00 58 1019.7
20260502054045 13 252 0.0 1.6 0.00 0.00 0.00 58 1019.6